Location: Newark
(25.4800°N, 85.7200°E)
Time: 17:57:41
(UTC+00:00)

Explorer 11/Cluster Stage 4 - Pass Details

Date: 21 August 2019
Orbit: 467 x 1259 km, 28.8° (Epoch: 15 October)

Event Time Altitude Azimuth Distance (km) Brightness Sun altitude
Rises 04:46:45 0° 243° (WSW) 4,111 10.1 64.2°
Reaches altitude 10° 04:49:36 10° 241° (WSW) 3,193 9.7 64.8°
Maximum altitude 04:57:46 70° 160° (SSE) 1,317 9.8 66.4°
Drops below altitude 10° 05:05:42 10° 78° (ENE) 3,103 10.0 67.9°
Sets 05:08:26 0° 76° (ENE) 3,990 10.4 68.4°
